Location: ?ejkovice
(49.0137°N, 14.3821°E)
Time: 02:17:41
(UTC+00:00)

Cosmos 968 Rocket - Pass Details

Date: 06 August 2024
Orbit: 738 x 767 km, 74.0° (Epoch: 08 September)

Event Time Altitude Azimuth Distance (km) Brightness Sun altitude
Rises 21:03:32 0° 332° (NNW) 3,231 8.4 -19.0°
Reaches altitude 10° 21:05:58 10° 328° (NNW) 2,297 7.2 -19.2°
Maximum altitude 21:10:59 50° 254° (WSW) 956 4.0 -19.6°
Enters shadow 21:13:15 29° 196° (SSW) 1,342 4.4 -19.8°
